N0RWU Weather Reports


Display with metric or nautical units.
time (UTC)temp
F
wind
direction
speed
MPH
gust
MPH
rain 1hr
in
rain 24hr
in
rain mn
in
humidity
%
barometer
mb
20260507013547 50 210 1.0 2.0 0.00 0.00 0.00 41 1006.5
20260507011548 52 266 0.0 0.0 0.00 0.00 0.00 37 1006.5
20260507010547 54 239 3.0 3.0 0.00 0.00 0.00 35 1006.5
20260507005547 55 258 2.0 2.0 0.00 0.00 0.00 33 1006.6
20260507004548 56 248 2.0 2.0 0.00 0.00 0.00 33 1006.6
20260507002548 56 257 5.0 6.0 0.00 0.00 0.00 32 1006.8
20260507001548 56 258 8.0 9.0 0.00 0.00 0.00 31 1006.8
20260507000547 56 254 5.0 7.0 0.00 0.00 0.00 31 1006.8
20260506235547 57 258 6.0 8.0 0.00 0.00 0.00 31 1006.8
20260506234548 59 307 4.0 5.0 0.00 0.00 0.00 30 1006.8
20260506233548 57 268 5.0 7.0 0.00 0.00 0.00 31 1006.9
20260506232549 56 254 6.0 7.0 0.00 0.00 0.00 31 1007.0
20260506231548 56 243 8.0 10.0 0.00 0.00 0.00 31 1007.1
20260506230547 58 256 3.0 3.0 0.00 0.00 0.00 31 1007.0
20260506225548 56 267 5.0 7.0 0.00 0.00 0.00 33 1007.1
20260506224547 56 247 7.0 10.0 0.00 0.00 0.00 32 1007.2
20260506222547 57 250 9.0 11.0 0.00 0.00 0.00 32 1007.2
20260506221549 58 259 9.0 10.0 0.00 0.00 0.00 32 1007.2
20260506215547 60 272 6.0 8.0 0.00 0.00 0.00 30 1007.2
20260506214548 59 256 5.0 7.0 0.00 0.00 0.00 30 1007.2
20260506213547 56 246 7.0 9.0 0.00 0.00 0.00 33 1007.2
20260506212547 55 247 9.0 10.0 0.00 0.00 0.00 33 1007.4
20260506211548 55 130 4.0 7.0 0.00 0.00 0.00 34 1007.6
20260506205548 56 294 10.0 12.0 0.00 0.00 0.00 33 1007.7
20260506204548 56 244 13.0 18.0 0.00 0.00 0.00 34 1007.8
20260506201547 56 265 4.0 7.0 0.00 0.00 0.00 35 1008.0
20260506200547 56 292 8.0 10.0 0.00 0.00 0.00 33 1008.2
20260506195548 56 254 7.0 9.0 0.00 0.00 0.00 34 1008.2
20260506194547 57 291 6.0 8.0 0.00 0.00 0.00 34 1008.2
20260506192548 55 237 10.0 13.0 0.00 0.00 0.00 36 1008.3
20260506191547 56 250 9.0 11.0 0.00 0.00 0.00 35 1008.3
20260506190548 55 253 5.0 6.0 0.00 0.00 0.00 36 1008.4
20260506185548 54 270 8.0 11.0 0.00 0.00 0.00 37 1008.4
20260506184548 54 244 13.0 15.0 0.00 0.00 0.00 36 1008.4
20260506183548 55 272 11.0 13.0 0.00 0.00 0.00 37 1008.3
20260506182547 54 248 6.0 8.0 0.00 0.00 0.00 36 1008.5
20260506181548 55 270 11.0 12.0 0.00 0.00 0.00 36 1008.6
20260506175547 53 259 9.0 12.0 0.00 0.00 0.00 37 1008.8
20260506174548 53 265 8.0 10.0 0.00 0.00 0.00 37 1008.8
20260506173547 53 257 9.0 12.0 0.00 0.00 0.00 36 1009.0
20260506172547 52 252 10.0 12.0 0.00 0.00 0.00 37 1009.0
20260506171548 53 250 7.0 10.0 0.00 0.00 0.00 38 1009.2
20260506170547 52 247 6.0 7.0 0.00 0.00 0.00 39 1009.1
20260506164547 51 276 4.0 4.0 0.00 0.00 0.00 40 1009.1
20260506163548 52 94 4.0 5.0 0.00 0.00 0.00 40 1009.2
20260506162548 51 261 9.0 12.0 0.00 0.00 0.00 40 1009.1
20260506161547 51 232 7.0 9.0 0.00 0.00 0.00 40 1009.1
20260506155548 51 209 5.0 7.0 0.00 0.00 0.00 41 1008.9
20260506154547 52 248 4.0 5.0 0.00 0.00 0.00 39 1009.0
20260506152827 54 239 5.0 7.0 0.00 0.00 0.00 43 1009.0
20260506151827 53 277 5.0 7.0 0.00 0.00 0.00 43 1009.0
20260506150828 52 271 3.0 3.0 0.00 0.00 0.00 41 1009.1
20260506145827 52 247 5.0 6.0 0.00 0.00 0.00 42 1009.1
20260506144827 51 300 3.0 4.0 0.00 0.00 0.00 43 1009.0
20260506143828 51 69 4.0 7.0 0.00 0.00 0.00 43 1008.8
20260506142827 51 268 6.0 8.0 0.00 0.00 0.00 43 1008.8
20260506141827 50 258 3.0 4.0 0.00 0.00 0.00 43 1008.8
20260506140827 51 73 3.0 4.0 0.00 0.00 0.00 43 1008.7
20260506135827 50 295 6.0 7.0 0.00 0.00 0.00 44 1008.8
20260506134826 49 263 4.0 4.0 0.00 0.00 0.00 44 1008.7
20260506132827 49 262 4.0 6.0 0.00 0.00 0.00 46 1008.2
20260506131826 49 292 3.0 4.0 0.00 0.00 0.00 46 1008.2
20260506130827 48 273 2.0 2.0 0.00 0.00 0.00 50 1008.2
20260506124827 46 288 2.0 2.0 0.00 0.00 0.00 52 1008.3
20260506122827 44 222 0.0 1.0 0.00 0.00 0.00 58 1008.2
20260506121828 42 271 1.0 2.0 0.00 0.00 0.00 61 1008.1
20260506120827 40 259 2.0 2.0 0.00 0.00 0.00 66 1008.2
20260506114828 36 267 1.0 1.0 0.00 0.00 0.00 69 1007.8
20260506113827 36 219 0.0 0.0 0.00 0.00 0.00 69 1007.5
20260506112827 37 243 0.0 0.0 0.00 0.00 0.00 69 1007.3
20260506110827 37 240 1.0 2.0 0.00 0.00 0.00 67 1007.1
20260506104827 38 243 0.0 1.0 0.00 0.00 0.00 64 1006.9
20260506103827 39 274 2.0 2.0 0.00 0.00 0.00 63 1006.7
20260506102828 39 302 1.0 2.0 0.00 0.00 0.00 62 1006.7
20260506095826 40 256 2.0 2.0 0.00 0.00 0.00 62 1006.7
20260506094827 40 359 1.0 2.0 0.00 0.00 0.00 61 1006.7
20260506093827 40 264 2.0 2.0 0.00 0.00 0.00 60 1006.7
20260506090827 40 238 0.0 1.0 0.00 0.00 0.00 60 1006.5
20260506084827 40 275 2.0 2.0 0.00 0.00 0.00 59 1006.2
20260506083827 40 128 2.0 2.0 0.00 0.00 0.00 58 1006.2
20260506082827 40 282 1.0 2.0 0.00 0.00 0.00 58 1005.9
20260506081827 41 305 1.0 2.0 0.00 0.00 0.00 58 1005.8
20260506080828 40 274 0.0 2.0 0.00 0.00 0.00 60 1005.7
20260506072827 37 232 0.0 0.0 0.00 0.00 0.00 69 1005.8
20260506071827 37 238 0.0 0.0 0.00 0.00 0.00 69 1005.8
20260506070828 36 237 0.0 0.0 0.00 0.00 0.00 68 1005.6
20260506061827 37 240 0.0 0.0 0.00 0.00 0.00 62 1005.6
20260506060827 39 239 0.0 0.0 0.00 0.00 0.00 59 1005.5
20260506050827 43 98 0.0 0.0 0.00 0.00 0.00 53 1004.8
20260506044827 44 279 1.0 2.0 0.00 0.00 0.00 51 1004.6
20260506043828 44 276 2.0 2.0 0.00 0.00 0.00 50 1004.5
20260506042827 45 300 2.0 4.0 0.00 0.00 0.00 50 1004.6
20260506040826 45 270 2.0 4.0 0.00 0.00 0.00 49 1004.4
20260506035827 46 290 4.0 4.0 0.00 0.00 0.00 47 1004.4
20260506033827 47 275 3.0 4.0 0.00 0.00 0.00 46 1004.2
20260506032827 47 286 2.0 2.0 0.00 0.00 0.00 46 1004.2
20260506031827 48 232 2.0 2.0 0.00 0.00 0.00 45 1004.1
20260506030827 49 290 3.0 4.0 0.00 0.00 0.00 44 1004.0
20260506025827 49 256 3.0 4.0 0.00 0.00 0.00 42 1004.0
20260506024826 50 248 3.0 4.0 0.00 0.00 0.00 42 1003.8
20260506023827 50 289 1.0 2.0 0.00 0.00 0.00 41 1003.8
20260506022827 51 258 6.0 7.0 0.00 0.00 0.00 40 1003.7
20260506020827 52 270 2.0 3.0 0.00 0.00 0.00 40 1003.3
20260506015827 52 301 4.0 4.0 0.00 0.00 0.00 39 1003.3